Flag for Germany Weather past 2 weeks in Coesfeld, North Rhine-Westphalia, Germany

Now
50 °F

Cool.


Feels Like: 48 °F
Forecast: 47 / 63 °F
Wind: 5 mph from Southwest

Location: Rheine-Bentlage

Current Time: Aug 23, 2014 at 2:45:12 AM

Latest Report: Aug 23, 2014 at 1:20 AM


Visibility: 0 mi

Pressure: 29.86 "Hg

Humidity: 100%

Dew point: 50 °F

Location of CoesfeldLocation

Historic Weather in Coesfeld — Graph

°F

Coesfeld temperature yesterday

Maximum temperature yesterday: 64 °F (at 1:20 PM)
Minimum temperature yesterday: 50 °F (at 9:20 PM)
Average temperature yesterday: 56 °F

Past Weeks' High & Low Weather Summary

 TemperatureHumidityPressure
High79 °F (Aug 10, 3:20 PM)100% (Aug 8, 2:20 AM)30.01 "Hg (Aug 8, 2:20 AM)
Low48 °F (Aug 20, 3:20 AM)46% (Aug 13, 7:20 PM)29.53 "Hg (Aug 10, 7:20 PM)
Average60 °F80%29.81 "Hg
* Reported Aug 8 1:20 AM — Aug 23 1:20 AM, Coesfeld, Weather by CustomWeather, © 2014

Note: Actual official high and low records may vary slightly from our data, if they occured in-between our weather recording intervals... More about our weather records

Advertising

Coesfeld weather history for previous 24 hours

 ConditionsComfort  
Time TempWeatherWind HumidityBarometerVisibility
1:20 AM
Aug 23
50 °FCool.5 mph100%29.86 "Hg1 mi
12:20 AM50 °FCool.5 mph94%29.86 "Hg1 mi
11:20 PM
Aug 22
52 °FCool.5 mph94%29.86 "Hg0 mi
10:20 PM50 °FCool.3 mph100%29.86 "Hg0 mi
9:20 PM50 °FCool.1 mph100%29.86 "Hg3 mi
8:20 PM52 °FCool.7 mph94%29.86 "Hg3 mi
7:20 PM54 °FCool.10 mph88%29.86 "Hg2 mi
6:20 PM57 °FCool.7 mph82%29.83 "Hg3 mi
5:20 PM59 °FCool.8 mph77%29.83 "Hg2 mi
4:20 PM63 °FMild.10 mph59%29.83 "Hg3 mi
3:20 PM61 °FCool.12 mph68%29.83 "Hg3 mi
2:20 PM63 °FMild.10 mph64%29.83 "Hg3 mi
1:20 PM64 °FMild.13 mph56%29.83 "Hg3 mi
12:20 PM63 °FPartly sunny.12 mph64%29.83 "HgN/A
11:20 AM61 °FPartly sunny.9 mph63%29.86 "HgN/A
10:20 AM59 °FPartly sunny.7 mph68%29.86 "HgN/A
9:20 AM57 °FPartly sunny.7 mph72%29.86 "HgN/A
8:20 AM55 °FBroken clouds.5 mph77%29.86 "HgN/A
7:20 AM52 °FPassing clouds.3 mph82%29.86 "HgN/A
6:20 AM52 °FPassing clouds.3 mph82%29.89 "HgN/A
5:20 AM52 °FPassing clouds.3 mph82%29.89 "HgN/A
4:20 AM52 °FCool.2 mph88%29.89 "Hg3 mi
3:20 AM54 °FCool.3 mph82%29.92 "Hg3 mi
2:20 AM54 °FCool.3 mph82%29.92 "Hg3 mi
Weather by CustomWeather, © 2014

See weather overviewHow to use our weather pages